• Join FlightAware (Why Join?)
  • Login
  • US Flag 
06:55PM EST


 

Airport Tracker/Info


-or-


 

Live Flight TrackerFlight Track Log ✈ TAM3195 ✈ 19-Sep-2013 ✈ SBVT / VIX - SBRJ / SDU

Flight Track Log - Related Links

Times and Time Zones

All times are in EDT time to prevent confusion due to time zone crossing. See the TAM3195 flight status page for this flight to view local times or setup timezone preferences in your user account.

Time Position Orientation Groundspeed Altitude Reporting Facility
EDT Latitude Longitude Course Direction KTS MPH feet Rate Location/Type
01:07PM -20.2580 -40.2890 137° Southeast  Level FlightAware
01:09PM -20.3772 -40.4148 225° Southwest  Level Estimated
01:10PM -20.4367 -40.4778 225° Southwest  Level Estimated
01:11PM -20.4963 -40.5409 225° Southwest  Level Estimated
01:11PM -20.2590 -40.2890 225° Southwest  Level FlightAware
01:14PM -20.2550 -40.2850 30° Northeast 132 152 53 Level FlightAware
01:15PM -20.2490 -40.2810 32° Northeast 147 169 200 1,886 Climbing FlightAware
01:15PM -20.2340 -40.2710 32° Northeast 156 180 1,100 1,915 Climbing FlightAware
01:15PM -20.2180 -40.2600 33° Northeast 185 213 1,700 1,395 Climbing FlightAware
01:16PM -20.2050 -40.2510 33° Northeast 211 243 2,100 1,742 Climbing FlightAware
01:16PM -20.1940 -40.2410 40° Northeast 231 266 2,600 2,667 Climbing FlightAware
01:16PM -20.1900 -40.2340 59° Northeast 237 273 2,900 2,667 Climbing FlightAware
01:16PM -20.1880 -40.2230 79° East 244 281 3,400 3,366 Climbing FlightAware
01:17PM -20.2030 -40.1930 118° Southeast 251 289 5,200 3,659 Climbing FlightAware
01:17PM -20.2120 -40.1830 134° Southeast 248 285 5,900 3,871 Climbing FlightAware
01:17PM -20.2290 -40.1640 134° Southeast 245 282 7,200 3,568 Climbing FlightAware
01:18PM -20.2470 -40.1510 146° Southeast 256 295 8,100 2,323 Climbing FlightAware
01:18PM -20.2590 -40.1500 176° South 269 310 8,400 2,432 Climbing FlightAware
01:18PM -20.2860 -40.1660 209° Southwest 284 327 9,600 2,542 Climbing FlightAware
01:19PM -20.3280 -40.2000 217° Southwest 318 366 10,900 1,917 Climbing FlightAware
01:19PM -20.3730 -40.2360 217° Southwest 350 403 11,900 2,108 Climbing FlightAware
01:20PM -20.4210 -40.2750 217° Southwest 355 409 13,500 2,545 Climbing FlightAware
01:21PM -20.4570 -40.3040 217° Southwest 360 414 14,700 2,364 Climbing FlightAware
01:21PM -20.5110 -40.3490 218° Southwest 372 428 16,100 2,055 Climbing FlightAware
01:22PM -20.5590 -40.3880 217° Southwest 387 445 17,200 2,028 Climbing FlightAware
01:22PM -20.6100 -40.4300 218° Southwest 393 452 18,500 1,917 Climbing FlightAware
01:23PM -20.6610 -40.4710 217° Southwest 403 464 19,500 1,479 Climbing FlightAware
01:24PM -20.7160 -40.5160 217° Southwest 418 481 20,300 1,808 Climbing FlightAware
01:24PM -20.7760 -40.5650 217° Southwest 417 480 21,700 2,091 Climbing FlightAware
01:25PM -20.8190 -40.6000 217° Southwest 420 483 22,600 1,524 Climbing FlightAware
01:25PM -20.8700 -40.6420 218° Southwest 425 489 23,300 1,667 Climbing FlightAware
01:26PM -20.9300 -40.6910 217° Southwest 422 486 24,600 2,211 Climbing FlightAware
01:26PM -20.9880 -40.7390 218° Southwest 413 475 26,100 2,206 Climbing FlightAware
01:27PM -21.0340 -40.7760 217° Southwest 410 472 27,100 1,754 Climbing FlightAware
01:28PM -21.0860 -40.8190 218° Southwest 404 465 28,000 761 Climbing FlightAware
01:28PM -21.1390 -40.8630 218° Southwest 402 463 28,000  Level FlightAware
01:29PM -21.1950 -40.9090 217° Southwest 404 465 28,000  Level FlightAware
01:29PM -21.2470 -40.9520 218° Southwest 407 468 28,000  Level FlightAware
01:30PM -21.2960 -40.9920 217° Southwest 406 467 28,000  Level FlightAware
01:30PM -21.3520 -41.0380 217° Southwest 407 468 28,000  Level FlightAware
01:31PM -21.4000 -41.0780 218° Southwest 407 468 28,000  Level FlightAware
01:32PM -21.4570 -41.1260 218° Southwest 406 467 28,000  Level FlightAware
01:32PM -21.5160 -41.1740 217° Southwest 405 466 28,000  Level FlightAware
01:33PM -21.5580 -41.2090 218° Southwest 404 465 28,000  Level FlightAware
01:33PM -21.6160 -41.2570 218° Southwest 401 461 28,000  Level FlightAware
01:34PM -21.6800 -41.3090 217° Southwest 399 459 28,000  Level FlightAware
01:35PM -21.7230 -41.3450 218° Southwest 399 459 28,000  Level FlightAware
01:35PM -21.7670 -41.3830 219° Southwest 399 459 28,000  Level FlightAware
01:36PM -21.8160 -41.4230 217° Southwest 399 459 28,000  Level FlightAware
01:36PM -21.8740 -41.4720 218° Southwest 399 459 28,000  Level FlightAware
01:37PM -21.9220 -41.5110 217° Southwest 399 459 28,000  Level FlightAware
01:38PM -21.9710 -41.5520 218° Southwest 399 459 28,000  Level FlightAware
01:38PM -22.0250 -41.5970 218° Southwest 400 460 28,000  Level FlightAware
01:39PM -22.0850 -41.6480 218° Southwest 401 461 28,000  Level FlightAware
01:39PM -22.1370 -41.6920 218° Southwest 402 463 28,000  Level FlightAware
01:40PM -22.1860 -41.7330 218° Southwest 403 464 28,000  Level FlightAware
01:41PM -22.2410 -41.7780 217° Southwest 403 464 28,000  Level FlightAware
01:41PM -22.3080 -41.8340 218° Southwest 404 465 28,000  Level FlightAware
01:42PM -22.3500 -41.8700 218° Southwest 404 465 28,000  Level FlightAware
01:42PM -22.4050 -41.9160 218° Southwest 405 466 28,000  Level FlightAware
01:43PM -22.4730 -41.9740 218° Southwest 403 464 28,000  Level FlightAware
01:44PM -22.5200 -42.0130 217° Southwest 403 464 28,000  Level FlightAware
01:44PM -22.5730 -42.0580 218° Southwest 403 464 28,000 -667 Level FlightAware
01:45PM -22.6210 -42.1080 224° Southwest 389 448 27,200 -1,583 Descending FlightAware
01:45PM -22.6630 -42.1600 229° Southwest 386 444 26,100 -1,853 Descending FlightAware
01:46PM -22.7010 -42.2070 229° Southwest 382 440 25,100 -1,765 Descending FlightAware
01:47PM -22.7420 -42.2580 229° Southwest 378 435 24,100 -1,750 Descending FlightAware
01:47PM -22.7830 -42.3100 229° Southwest 373 429 23,000 -1,765 Descending FlightAware
01:48PM -22.8190 -42.3550 229° Southwest 365 420 22,100 -1,273 Descending FlightAware
01:48PM -22.8560 -42.4010 229° Southwest 347 399 21,600 -857 Descending FlightAware
01:49PM -22.8770 -42.4300 232° Southwest 333 383 21,300 -1,000 Descending FlightAware
01:49PM -22.8810 -42.4420 250° West 328 377 21,100 -1,467 Descending FlightAware
01:49PM -22.8920 -42.5000 258° West 323 372 20,200 -1,397 Descending FlightAware
01:50PM -22.9030 -42.5570 258° West 320 368 19,400 -1,433 Descending FlightAware
01:51PM -22.9130 -42.6070 258° West 317 365 18,600 -1,588 Descending FlightAware
01:51PM -22.9240 -42.6640 258° West 315 362 17,600 -1,562 Descending FlightAware
01:52PM -22.9350 -42.7200 258° West 313 360 16,700 -1,371 Descending FlightAware
01:52PM -22.9440 -42.7680 258° West 312 359 16,000 -1,378 Descending FlightAware
01:53PM -22.9550 -42.8280 259° West 309 356 15,000 -1,200 Descending FlightAware
01:54PM -22.9660 -42.8830 258° West 294 338 14,500 -686 Descending FlightAware
01:54PM -22.9750 -42.9320 259° West 273 314 14,200 -514 Descending FlightAware
01:55PM -22.9840 -42.9770 258° West 254 292 13,900 -686 Descending FlightAware
01:55PM -22.9920 -43.0180 258° West 247 284 13,400 -930 Descending FlightAware
01:56PM -23.0000 -43.0620 259° West 245 282 12,800 -857 Descending FlightAware
01:57PM -23.0080 -43.1040 258° West 235 270 12,400 -696 Descending FlightAware
01:57PM -23.0150 -43.1420 259° West 220 253 12,000 -857 Descending FlightAware
01:58PM -23.0220 -43.1810 259° West 218 251 11,400 -1,114 Descending FlightAware
01:58PM -23.0290 -43.2160 258° West 219 252 10,700 -1,000 Descending FlightAware
01:59PM -23.0350 -43.2440 257° West 218 251 10,200 -1,125 Descending FlightAware
01:59PM -23.0430 -43.2870 259° West 218 251 9,500 -1,294 Descending FlightAware
02:00PM -23.0480 -43.3120 258° West 215 247 9,100 -1,091 Descending FlightAware
02:00PM -23.0510 -43.3340 262° West 219 252 8,700 -1,050 Descending FlightAware
02:00PM -23.0490 -43.3560 276° West 219 252 8,400 -1,000 Descending FlightAware
02:01PM -23.0460 -43.3790 278° West 219 252 8,000 -1,171 Descending FlightAware
02:01PM -23.0440 -43.3990 276° West 219 252 7,600 -1,111 Descending FlightAware
02:01PM -23.0410 -43.4080 290° West 219 252 7,500 -1,034 Descending FlightAware
02:02PM -23.0310 -43.4300 296° West 219 252 7,100 -1,024 Descending FlightAware
02:02PM -23.0210 -43.4490 300° West 217 250 6,800 -955 Descending FlightAware
02:02PM -23.0110 -43.4710 296° West 213 245 6,400 -1,000 Descending FlightAware
02:03PM -22.9970 -43.4820 324° Northwest 209 241 6,100 -453 Descending FlightAware
02:03PM -22.9720 -43.4940 336° Northwest 208 239 6,000 -556 Descending FlightAware
02:03PM -22.9520 -43.5020 340° North 210 242 5,600 -667 Descending FlightAware
02:04PM -22.9410 -43.5050 346° North 205 236 5,500 -113 Descending FlightAware
02:04PM -22.9200 -43.5090 350° North 205 236 5,500 -545 Level FlightAware
02:04PM -22.9170 -43.4810 83° East 202 232 5,200 -1,286 Descending FlightAware
02:05PM -22.9140 -43.4740 65° Northeast 204 235 5,200 -353 Level FlightAware
02:05PM -22.9050 -43.4520 66° East 202 232 5,000 -500 Descending FlightAware
02:05PM -22.8940 -43.4280 64° Northeast 202 232 4,800 -308 Descending FlightAware
02:06PM -22.8880 -43.4150 63° Northeast 203 234 4,800  Level FlightAware
02:06PM -22.8750 -43.3860 64° Northeast 205 236 4,800 -109 Level FlightAware
02:07PM -22.8670 -43.3600 72° East 209 241 4,700 -480 Descending FlightAware
02:07PM -22.8730 -43.3350 105° East 214 246 4,400 -857 Descending FlightAware
02:07PM -22.8780 -43.3080 101° East 213 245 4,000 -894 Descending FlightAware
02:08PM -22.8830 -43.2840 103° East 209 241 3,700 -735 Descending FlightAware
02:08PM -22.8880 -43.2610 103° East 200 230 3,400 -878 Descending FlightAware
02:09PM -22.8910 -43.2450 102° East 196 226 3,100 -1,200 Descending FlightAware
02:09PM -22.8970 -43.2210 105° East 192 221 2,600 -1,200 Descending FlightAware
02:09PM -22.9000 -43.2070 103° East 182 209 2,300 -1,171 Descending FlightAware
02:10PM -22.9080 -43.1770 106° East 155 178 1,800 -913 Descending FlightAware
02:10PM -22.9110 -43.1620 102° East 137 158 1,600 -429 Descending FlightAware
02:10PM -22.9090 -43.1480 81° East 133 153 1,500 -414 Descending FlightAware
02:10PM -22.9060 -43.1430 57° Northeast 139 160 1,400 -375 Descending FlightAware
02:11PM -22.9020 -43.1390 43° Northeast 142 163 1,400 -300 Level FlightAware
02:11PM -22.8950 -43.1360 22° Northeast 143 165 1,300 -600 Descending FlightAware
02:11PM -22.8900 -43.1350 10° North 143 165 1,200 -545 Descending FlightAware
02:11PM -22.8720 -43.1460 331° Northwest 138 159 900 -750 Descending FlightAware
02:12PM -22.8710 -43.1540 278° West 138 159 600 -882 Descending FlightAware
02:12PM -22.8790 -43.1650 232° Southwest 124 143 400 -383 Descending FlightAware
02:12PM -22.8860 -43.1650 180° South 121 139 300 -269 Descending FlightAware
02:13PM -22.9040 -43.1630 174° South 121 139 100 -286 Descending FlightAware